EW8409 Weather Reports


Display with metric or nautical units.
time (UTC)temp
F
wind
direction
speed
MPH
gust
MPH
rain 1hr
in
rain 24hr
in
rain mn
in
humidity
%
barometer
mb
20240624140015 68 13 1.0 10.0 0.00 0.01 0.00 70 1008.6
20240624134512 67 347 2.0 10.0 0.00 0.01 0.00 70 1008.5
20240624133008 66 297 2.0 11.0 0.00 0.01 0.00 71 1008.3
20240624131512 66 207 1.0 13.0 0.00 0.01 0.00 72 1008.0
20240624130005 66 39 2.0 10.0 0.00 0.01 0.00 71 1007.7
20240624124504 66 6 3.0 8.0 0.00 0.01 0.00 73 1007.7
20240624123001 66 268 3.0 13.0 0.00 0.01 0.00 73 1007.3
20240624121558 66 198 2.0 17.0 0.00 0.01 0.00 73 1007.0
20240624120057 65 16 1.0 14.0 0.00 0.01 0.00 76 1006.5
20240624114557 64 86 1.0 10.0 0.00 0.01 0.00 79 1006.3
20240624113053 64 315 1.0 12.0 0.00 0.01 0.00 80 1005.8
20240624111553 64 318 1.0 9.0 0.00 0.01 0.00 80 1005.5
20240624110104 64 278 1.0 8.0 0.00 0.01 0.00 79 1005.5
20240624104552 64 95 2.0 8.0 0.00 0.01 0.00 79 1005.1
20240624103055 64 183 1.0 6.0 0.00 0.01 0.00 80 1004.8
20240624101544 64 319 2.0 6.0 0.00 0.01 0.00 80 1004.6
20240624100059 64 319 0.0 7.0 0.00 0.01 0.00 81 1004.2
20240624094539 63 334 2.0 7.0 0.00 0.01 0.00 81 1003.9
20240624093037 63 216 0.0 4.0 0.00 0.01 0.00 82 1003.7
20240624091540 63 4 0.0 6.0 0.00 0.01 0.00 84 1003.6
20240624090037 62 220 0.0 6.0 0.00 0.01 0.00 87 1003.4
20240624084534 62 152 1.0 6.0 0.00 0.01 0.00 87 1003.2
20240624083033 63 33 0.0 8.0 0.00 0.01 0.00 85 1003.1
20240624081529 63 327 1.0 8.0 0.00 0.01 0.00 84 1002.7
20240624080028 63 238 0.0 6.0 0.00 0.01 0.00 84 1002.5
20240624074528 63 70 1.0 13.0 0.00 0.01 0.00 86 1002.4
20240624073026 63 52 0.0 6.0 0.00 0.01 0.00 87 1002.4
20240624071528 62 7 0.0 6.0 0.00 0.01 0.00 88 1002.2
20240624070024 62 233 1.0 6.0 0.00 0.01 0.00 89 1002.1
20240624064522 62 173 0.0 3.0 0.00 0.01 0.00 89 1002.0
20240624063029 62 239 0.0 4.0 0.00 0.01 0.00 89 1001.9
20240624061524 63 115 1.0 5.0 0.00 0.01 0.00 86 1001.9
20240624060020 63 155 1.0 9.0 0.00 0.01 0.00 84 1001.7
20240624054509 66 237 2.0 8.0 0.00 0.01 0.00 76 1001.8
20240624053009 66 212 1.0 8.0 0.00 0.01 0.00 74 1001.4
20240624051504 66 150 3.0 7.0 0.00 0.01 0.00 74 1001.4
20240624050003 67 105 2.0 7.0 0.00 0.01 0.00 73 1001.4
20240624044600 67 205 2.0 9.0 0.00 0.01 0.00 72 1001.2
20240624043056 67 156 2.0 10.0 0.00 0.01 0.00 71 1001.0
20240624041559 67 229 1.0 7.0 0.00 0.01 0.00 71 1000.9
20240624040053 68 109 1.0 11.0 0.00 0.01 0.00 71 1000.9
20240624034550 68 256 0.0 7.0 0.00 0.01 0.01 70 1000.9
20240624033109 68 137 1.0 8.0 0.00 0.01 0.01 70 1001.0
20240624031556 68 181 1.0 6.0 0.00 0.01 0.01 70 1000.9
20240624030049 68 264 0.0 6.0 0.00 0.01 0.01 69 1000.8
20240624024549 68 170 0.0 8.0 0.00 0.01 0.01 69 1000.6
20240624023052 69 205 2.0 7.0 0.00 0.01 0.01 68 1000.5
20240624021546 69 4 2.0 12.0 0.00 0.01 0.01 68 1000.3
20240624020040 71 322 2.0 12.0 0.00 0.01 0.01 69 1000.0
20240624014539 71 167 1.0 9.0 0.00 0.01 0.01 69 999.6
20240624013038 72 195 1.0 10.0 0.00 0.01 0.01 68 999.5
20240624011539 73 155 1.0 13.0 0.00 0.01 0.01 69 999.2
20240624010035 73 275 1.0 10.0 0.00 0.01 0.01 68 999.0
20240624004543 74 120 4.0 15.0 0.00 0.01 0.01 67 998.9
20240624003040 74 169 0.0 6.0 0.00 0.01 0.01 71 998.6
20240624001540 75 178 1.0 11.0 0.00 0.01 0.01 70 998.5
20240624000036 76 94 2.0 7.0 0.00 0.01 0.01 71 998.5
20240623234532 76 141 1.0 10.0 0.00 0.01 0.01 74 998.4
20240623233032 76 198 0.0 9.0 0.00 0.01 0.01 80 998.1
20240623231530 76 186 2.0 10.0 0.00 0.01 0.01 81 997.9
20240623230030 76 247 1.0 5.0 0.00 0.01 0.01 80 997.8
20240623224547 76 203 2.0 10.0 0.00 0.01 0.01 79 997.7
20240623223041 77 143 1.0 10.0 0.00 0.01 0.01 79 997.8
20240623221525 79 179 3.0 12.0 0.00 0.01 0.01 74 997.5
20240623220026 79 8 2.0 12.0 0.00 0.01 0.01 72 997.2
20240623214526 80 226 2.0 14.0 0.00 0.01 0.01 72 997.3
20240623213024 80 24 3.0 15.0 0.00 0.01 0.01 72 997.4
20240623211531 80 147 2.0 14.0 0.00 0.01 0.01 73 997.5
20240623210022 81 201 2.0 9.0 0.00 0.01 0.01 72 997.6
20240623204522 80 162 2.0 13.0 0.00 0.01 0.01 74 997.6
20240623203021 80 177 3.0 10.0 0.00 0.01 0.01 74 997.7
20240623201518 79 89 6.0 18.0 0.00 0.01 0.01 75 997.9
20240623200017 78 222 1.0 13.0 0.00 0.01 0.01 76 998.1
20240623194530 78 216 3.0 17.0 0.00 0.01 0.01 75 998.3
20240623193014 79 179 4.0 13.0 0.00 0.01 0.01 72 998.4
20240623191513 79 69 2.0 12.0 0.00 0.01 0.01 74 998.4
20240623190013 79 105 4.0 13.0 0.00 0.01 0.01 72 999.0
20240623184513 81 155 4.0 11.0 0.00 0.01 0.01 71 998.6
20240623183011 83 191 2.0 6.0 0.00 0.01 0.01 68 998.3
20240623181515 83 82 2.0 11.0 0.00 0.01 0.01 68 998.3
20240623180016 83 172 2.0 8.0 0.00 0.01 0.01 70 998.5
20240623174509 82 193 2.0 10.0 0.00 0.01 0.01 69 998.4
20240623173003 81 196 2.0 11.0 0.00 0.01 0.01 71 998.8
20240623171600 80 159 1.0 6.0 0.00 0.01 0.01 76 999.0
20240623171501 80 150 1.0 6.0 0.00 0.01 0.01 76 998.9
20240623170058 79 186 2.0 9.0 0.00 0.01 0.01 77 999.2
20240623164613 78 177 1.0 8.0 0.01 0.01 0.01 78 999.3
20240623163056 78 158 1.0 11.0 0.01 0.01 0.01 77 999.4
20240623161554 77 181 1.0 9.0 0.01 0.01 0.01 81 999.6
20240623160052 77 195 2.0 6.0 0.01 0.01 0.01 82 999.6
20240623154552 78 150 0.0 7.0 0.00 0.00 0.00 81 999.6
20240623153051 79 174 0.0 7.0 0.00 0.00 0.00 78 999.6
20240623151600 79 226 0.0 3.0 0.00 0.00 0.00 77 999.6
20240623150105 80 174 0.0 2.0 0.00 0.00 0.00 76 999.7
20240623144550 80 217 0.0 2.0 0.00 0.00 0.00 74 999.9
20240623143047 80 188 0.0 6.0 0.00 0.00 0.00 73 999.9
20240623141608 81 156 0.0 5.0 0.00 0.00 0.00 74 1000.2